MONITOR-1 (RS32S)

Last updated on Sat Mar 23 2024 00:02:59 GMT+0000 (Coordinated Universal Time)

1 53374U 22096E 24082.21691065 .05647970 24844-5 18068-2 0 9997 2 53374 97.3608 3.4277 0006544 165.5920 309.0102 16.26269253 91082
UTC large
Height (km)
Speed (km/s)
/
Latitude / Longitude
Inclination (degrees)
Orbital Period (minutes)
Azimuth
Elevation
Range (km)
Doppler Factor

Next 0 passes for location: London (51.5072 / 0.1276)

Sorry there are no passes over London.